| time (UTC) | temp C | wind direction | speed KPH | gust KPH | rain 1hr cm | rain 24hr cm | rain mn cm | humidity % | barometer mb |
| 20260831225424 | 27 | 337 | 0.0 | 1.6 | 0.00 | 0.00 | 0.00 | 46 | 1008.1 |
| 20260831224503 | 27 | 1 | 0.0 | 4.8 | 0.00 | 0.00 | 0.00 | 45 | 1008.1 |
| 20260831223603 | 27 | 13 | 3.2 | 3.2 | 0.00 | 0.00 | 0.00 | 45 | 1008.1 |
| 20260831222703 | 27 | 0 | 0.0 | 0.0 | 0.00 | 0.00 | 0.00 | 45 | 1008.1 |
| 20260831221803 | 27 | 0 | 0.0 | 0.0 | 0.00 | 0.00 | 0.00 | 45 | 1008.1 |
| 20260831220903 | 27 | 270 | 0.0 | 4.8 | 0.00 | 0.00 | 0.00 | 46 | 1008.1 |
| 20260831220024 | 27 | 270 | 4.8 | 4.8 | 0.00 | 0.00 | 0.00 | 46 | 1008.1 |
| 20260831215404 | 27 | 270 | 0.0 | 1.6 | 0.00 | 0.00 | 0.00 | 46 | 1008.1 |
| 20260831214503 | 27 | 0 | 0.0 | 0.0 | 0.00 | 0.00 | 0.00 | 44 | 1008.1 |
| 20260831213603 | 27 | 270 | 0.0 | 8.0 | 0.00 | 0.00 | 0.00 | 45 | 1008.1 |
| 20260831212703 | 27 | 315 | 0.0 | 3.2 | 0.00 | 0.00 | 0.00 | 44 | 1008.1 |
| 20260831211803 | 27 | 315 | 0.0 | 3.2 | 0.00 | 0.00 | 0.00 | 44 | 1008.1 |
| 20260831210904 | 27 | 315 | 0.0 | 6.4 | 0.00 | 0.00 | 0.00 | 44 | 1008.1 |
| 20260831210003 | 27 | 330 | 0.0 | 3.2 | 0.00 | 0.00 | 0.00 | 44 | 1008.1 |
| 20260831205403 | 27 | 270 | 0.0 | 6.4 | 0.00 | 0.00 | 0.00 | 44 | 1008.1 |
| 20260831204504 | 27 | 270 | 0.0 | 6.4 | 0.00 | 0.00 | 0.00 | 43 | 1008.1 |
| 20260831203603 | 27 | 270 | 0.0 | 8.0 | 0.00 | 0.00 | 0.00 | 43 | 1008.1 |
| 20260831202703 | 27 | 292 | 0.0 | 9.7 | 0.00 | 0.00 | 0.00 | 42 | 1008.1 |
| 20260831201803 | 27 | 290 | 9.7 | 9.7 | 0.00 | 0.00 | 0.00 | 44 | 1008.1 |
| 20260831200903 | 27 | 276 | 0.0 | 6.4 | 0.00 | 0.00 | 0.00 | 47 | 1008.1 |
| 20260831200003 | 27 | 257 | 0.0 | 9.7 | 0.00 | 0.00 | 0.00 | 47 | 1008.1 |
| 20260831195403 | 27 | 247 | 6.4 | 8.0 | 0.00 | 0.00 | 0.00 | 47 | 1008.1 |
| 20260831194524 | 27 | 263 | 0.0 | 6.4 | 0.00 | 0.00 | 0.00 | 47 | 1008.1 |
| 20260831193603 | 27 | 264 | 0.0 | 8.0 | 0.00 | 0.00 | 0.00 | 47 | 1008.1 |
| 20260831192703 | 27 | 280 | 0.0 | 9.7 | 0.00 | 0.00 | 0.00 | 47 | 1008.1 |
| 20260831191824 | 27 | 264 | 0.0 | 8.0 | 0.00 | 0.00 | 0.00 | 48 | 1008.1 |
| 20260831190903 | 27 | 250 | 6.4 | 9.7 | 0.00 | 0.00 | 0.00 | 48 | 1008.1 |
| 20260831190004 | 26 | 287 | 8.0 | 9.7 | 0.00 | 0.00 | 0.00 | 52 | 1008.1 |
| 20260831185404 | 26 | 285 | 0.0 | 6.4 | 0.00 | 0.00 | 0.00 | 49 | 1008.1 |
| 20260831184503 | 26 | 266 | 1.6 | 12.9 | 0.00 | 0.00 | 0.00 | 52 | 1008.1 |
| 20260831183603 | 26 | 262 | 8.0 | 8.0 | 0.00 | 0.00 | 0.00 | 53 | 1008.1 |
| 20260831182703 | 26 | 280 | 8.0 | 8.0 | 0.00 | 0.00 | 0.00 | 52 | 1009.2 |
| 20260831181804 | 26 | 280 | 1.6 | 4.8 | 0.00 | 0.00 | 0.00 | 53 | 1009.2 |
| 20260831180904 | 25 | 292 | 0.0 | 1.6 | 0.00 | 0.00 | 0.00 | 56 | 1008.1 |
| 20260831180003 | 25 | 267 | 1.6 | 6.4 | 0.00 | 0.00 | 0.00 | 57 | 1008.1 |
| 20260831175403 | 25 | 258 | 0.0 | 8.0 | 0.00 | 0.00 | 0.00 | 58 | 1009.2 |
| 20260831174503 | 23 | 270 | 0.0 | 8.0 | 0.00 | 0.00 | 0.00 | 69 | 1009.2 |
| 20260831173603 | 23 | 0 | 0.0 | 0.0 | 0.00 | 0.00 | 0.00 | 69 | 1009.2 |
| 20260831172703 | 23 | 270 | 0.0 | 6.4 | 0.00 | 0.00 | 0.00 | 69 | 1009.2 |
| 20260831171803 | 23 | 270 | 0.0 | 3.2 | 0.00 | 0.00 | 0.00 | 69 | 1009.2 |
| 20260831170924 | 23 | 270 | 0.0 | 3.2 | 0.00 | 0.00 | 0.00 | 69 | 1009.2 |
| 20260831170003 | 23 | 270 | 3.2 | 4.8 | 0.00 | 0.00 | 0.00 | 69 | 1009.2 |
| 20260831165424 | 23 | 270 | 0.0 | 3.2 | 0.00 | 0.00 | 0.00 | 69 | 1009.2 |
| 20260831164524 | 23 | 270 | 0.0 | 1.6 | 0.00 | 0.00 | 0.00 | 69 | 1009.2 |
| 20260831163603 | 23 | 270 | 0.0 | 4.8 | 0.00 | 0.00 | 0.00 | 69 | 1009.2 |
| 20260831162703 | 22 | 270 | 0.0 | 3.2 | 0.00 | 0.00 | 0.00 | 70 | 1009.2 |
| 20260831161803 | 22 | 270 | 1.6 | 4.8 | 0.00 | 0.00 | 0.00 | 70 | 1009.2 |
| 20260831160903 | 22 | 260 | 3.2 | 3.2 | 0.00 | 0.00 | 0.00 | 71 | 1009.2 |
| 20260831160005 | 22 | 247 | 0.0 | 1.6 | 0.00 | 0.00 | 0.00 | 71 | 1009.2 |
| 20260831155424 | 22 | 247 | 0.0 | 9.7 | 0.00 | 0.00 | 0.00 | 72 | 1009.2 |
| 20260831154503 | 22 | 264 | 0.0 | 9.7 | 0.00 | 0.00 | 0.00 | 73 | 1009.2 |
| 20260831153603 | 22 | 270 | 6.4 | 6.4 | 0.00 | 0.00 | 0.00 | 74 | 1009.2 |
| 20260831152703 | 22 | 281 | 4.8 | 9.7 | 0.00 | 0.00 | 0.00 | 76 | 1009.2 |
| 20260831151803 | 21 | 258 | 6.4 | 17.7 | 0.00 | 0.00 | 0.00 | 77 | 1009.2 |
| 20260831150924 | 21 | 262 | 1.6 | 9.7 | 0.00 | 0.00 | 0.00 | 78 | 1009.2 |
| 20260831150004 | 21 | 280 | 4.8 | 8.0 | 0.00 | 0.00 | 0.00 | 80 | 1009.2 |
| 20260831145403 | 21 | 254 | 0.0 | 9.7 | 0.00 | 0.00 | 0.00 | 80 | 1009.2 |
| 20260831144504 | 21 | 257 | 9.7 | 12.9 | 0.00 | 0.00 | 0.00 | 80 | 1009.2 |
| 20260831143625 | 21 | 255 | 4.8 | 12.9 | 0.00 | 0.00 | 0.00 | 81 | 1009.2 |
| 20260831142724 | 21 | 264 | 4.8 | 8.0 | 0.00 | 0.00 | 0.00 | 81 | 1009.2 |
| 20260831141824 | 21 | 292 | 8.0 | 8.0 | 0.00 | 0.00 | 0.00 | 82 | 1009.2 |
| 20260831140903 | 20 | 314 | 0.0 | 4.8 | 0.00 | 0.00 | 0.00 | 82 | 1008.1 |
| 20260831140004 | 20 | 277 | 0.0 | 11.3 | 0.00 | 0.00 | 0.00 | 82 | 1008.1 |
| 20260831135405 | 20 | 258 | 4.8 | 11.3 | 0.00 | 0.00 | 0.00 | 82 | 1008.1 |
| 20260831134503 | 20 | 247 | 3.2 | 8.0 | 0.00 | 0.00 | 0.00 | 83 | 1008.1 |
| 20260831133603 | 20 | 247 | 0.0 | 8.0 | 0.00 | 0.00 | 0.00 | 83 | 1008.1 |
| 20260831132703 | 20 | 247 | 0.0 | 6.4 | 0.00 | 0.00 | 0.00 | 83 | 1008.1 |
| 20260831131803 | 20 | 266 | 0.0 | 6.4 | 0.00 | 0.00 | 0.00 | 83 | 1008.1 |
| 20260831130903 | 20 | 271 | 0.0 | 6.4 | 0.00 | 0.00 | 0.00 | 83 | 1008.1 |
| 20260831130003 | 20 | 290 | 4.8 | 6.4 | 0.00 | 0.00 | 0.00 | 84 | 1008.1 |
| 20260831125403 | 20 | 292 | 4.8 | 6.4 | 0.00 | 0.00 | 0.00 | 85 | 1008.1 |
| 20260831124503 | 20 | 0 | 0.0 | 0.0 | 0.00 | 0.00 | 0.00 | 85 | 1008.1 |
| 20260831123603 | 20 | 0 | 0.0 | 0.0 | 0.00 | 0.00 | 0.00 | 85 | 1008.1 |
| 20260831122703 | 20 | 0 | 0.0 | 0.0 | 0.00 | 0.00 | 0.00 | 86 | 1007.1 |
| 20260831121824 | 20 | 0 | 0.0 | 0.0 | 0.00 | 0.00 | 0.00 | 86 | 1007.1 |
| 20260831120924 | 20 | 0 | 0.0 | 0.0 | 0.00 | 0.00 | 0.00 | 86 | 1007.1 |
| 20260831120003 | 20 | 0 | 0.0 | 0.0 | 0.00 | 0.00 | 0.00 | 86 | 1007.1 |
| 20260831115424 | 20 | 0 | 0.0 | 0.0 | 0.00 | 0.00 | 0.00 | 86 | 1007.1 |
| 20260831114503 | 20 | 0 | 0.0 | 0.0 | 0.00 | 0.00 | 0.00 | 85 | 1007.1 |
| 20260831113603 | 20 | 0 | 0.0 | 0.0 | 0.00 | 0.00 | 0.00 | 86 | 1006.0 |
| 20260831112703 | 20 | 0 | 0.0 | 0.0 | 0.00 | 0.00 | 0.00 | 85 | 1006.0 |
| 20260831111803 | 20 | 292 | 0.0 | 4.8 | 0.00 | 0.00 | 0.00 | 84 | 1006.0 |
| 20260831110903 | 20 | 0 | 0.0 | 0.0 | 0.00 | 0.00 | 0.00 | 84 | 1006.0 |
| 20260831110003 | 20 | 0 | 0.0 | 0.0 | 0.00 | 0.00 | 0.00 | 84 | 1006.0 |
| 20260831105403 | 20 | 0 | 0.0 | 0.0 | 0.00 | 0.00 | 0.00 | 84 | 1006.0 |
| 20260831104503 | 21 | 0 | 0.0 | 0.0 | 0.00 | 0.00 | 0.00 | 83 | 1006.0 |
| 20260831103603 | 21 | 0 | 0.0 | 0.0 | 0.00 | 0.00 | 0.00 | 83 | 1005.0 |
| 20260831102703 | 21 | 0 | 0.0 | 0.0 | 0.00 | 0.00 | 0.00 | 83 | 1005.0 |
| 20260831101803 | 21 | 0 | 0.0 | 0.0 | 0.00 | 0.00 | 0.00 | 82 | 1005.0 |
| 20260831100924 | 21 | 0 | 0.0 | 0.0 | 0.00 | 0.00 | 0.00 | 82 | 1005.0 |
| 20260831100003 | 21 | 292 | 0.0 | 1.6 | 0.00 | 0.00 | 0.00 | 81 | 1005.0 |
| 20260831095403 | 21 | 0 | 0.0 | 0.0 | 0.00 | 0.00 | 0.00 | 81 | 1005.0 |
| 20260831094503 | 21 | 0 | 0.0 | 0.0 | 0.00 | 0.00 | 0.00 | 81 | 1005.0 |
| 20260831093603 | 21 | 0 | 0.0 | 0.0 | 0.00 | 0.00 | 0.00 | 81 | 1005.0 |
| 20260831092703 | 21 | 0 | 0.0 | 0.0 | 0.00 | 0.00 | 0.00 | 80 | 1003.9 |
| 20260831091803 | 21 | 292 | 0.0 | 1.6 | 0.00 | 0.00 | 0.00 | 79 | 1003.9 |
| 20260831090903 | 21 | 0 | 0.0 | 0.0 | 0.00 | 0.00 | 0.00 | 78 | 1003.9 |
| 20260831090024 | 21 | 310 | 0.0 | 6.4 | 0.00 | 0.00 | 0.00 | 78 | 1003.9 |
| 20260831085403 | 21 | 286 | 0.0 | 3.2 | 0.00 | 0.00 | 0.00 | 76 | 1003.9 |
| 20260831084524 | 21 | 240 | 0.0 | 3.2 | 0.00 | 0.00 | 0.00 | 74 | 1003.9 |
| 20260831083603 | 21 | 0 | 0.0 | 0.0 | 0.00 | 0.00 | 0.00 | 73 | 1003.9 |
| 20260831082703 | 21 | 0 | 0.0 | 0.0 | 0.00 | 0.00 | 0.00 | 72 | 1003.9 |
| 20260831081824 | 21 | 0 | 0.0 | 0.0 | 0.00 | 0.00 | 0.00 | 72 | 1003.9 |
| 20260831080903 | 21 | 0 | 0.0 | 0.0 | 0.00 | 0.00 | 0.00 | 71 | 1002.9 |
| 20260831080024 | 21 | 0 | 0.0 | 0.0 | 0.00 | 0.00 | 0.00 | 71 | 1002.9 |
| 20260831075403 | 21 | 0 | 0.0 | 0.0 | 0.00 | 0.00 | 0.00 | 71 | 1002.9 |
| 20260831074503 | 21 | 0 | 0.0 | 0.0 | 0.00 | 0.00 | 0.00 | 70 | 1002.9 |
| 20260831073603 | 21 | 0 | 0.0 | 0.0 | 0.00 | 0.00 | 0.00 | 70 | 1002.9 |
| 20260831072724 | 22 | 0 | 0.0 | 0.0 | 0.00 | 0.00 | 0.00 | 69 | 1002.9 |
| 20260831071803 | 22 | 0 | 0.0 | 0.0 | 0.00 | 0.00 | 0.00 | 69 | 1002.9 |
| 20260831070903 | 22 | 0 | 0.0 | 0.0 | 0.00 | 0.00 | 0.00 | 69 | 1002.9 |
| 20260831070003 | 22 | 0 | 0.0 | 0.0 | 0.00 | 0.00 | 0.00 | 68 | 1002.9 |
| 20260831065403 | 22 | 0 | 0.0 | 0.0 | 0.00 | 0.00 | 0.00 | 68 | 1002.9 |
| 20260831064503 | 22 | 0 | 0.0 | 0.0 | 0.00 | 0.00 | 0.00 | 67 | 1002.9 |
| 20260831063603 | 22 | 0 | 0.0 | 0.0 | 0.00 | 0.00 | 0.00 | 67 | 1002.9 |
| 20260831062703 | 22 | 0 | 0.0 | 0.0 | 0.00 | 0.00 | 0.00 | 66 | 1002.9 |
| 20260831061803 | 22 | 0 | 0.0 | 0.0 | 0.00 | 0.00 | 0.00 | 66 | 1002.9 |
| 20260831060903 | 22 | 0 | 0.0 | 0.0 | 0.00 | 0.00 | 0.00 | 65 | 1002.9 |
| 20260831060024 | 23 | 0 | 0.0 | 0.0 | 0.00 | 0.00 | 0.00 | 65 | 1002.9 |
| 20260831055424 | 23 | 0 | 0.0 | 0.0 | 0.00 | 0.00 | 0.00 | 65 | 1002.9 |
| 20260831054503 | 23 | 0 | 0.0 | 0.0 | 0.00 | 0.00 | 0.00 | 65 | 1002.9 |
| 20260831053603 | 23 | 0 | 0.0 | 0.0 | 0.00 | 0.00 | 0.00 | 64 | 1002.9 |
| 20260831052703 | 23 | 0 | 0.0 | 0.0 | 0.00 | 0.00 | 0.00 | 64 | 1002.9 |
| 20260831051803 | 23 | 0 | 0.0 | 0.0 | 0.00 | 0.00 | 0.00 | 64 | 1002.9 |
| 20260831050903 | 23 | 0 | 0.0 | 0.0 | 0.00 | 0.00 | 0.00 | 64 | 1002.9 |
| 20260831050003 | 27 | 0 | 0.0 | 0.0 | 0.00 | 0.00 | 0.00 | 56 | 1002.9 |
| 20260831045403 | 27 | 0 | 0.0 | 0.0 | 0.00 | 0.00 | 0.00 | 56 | 1002.9 |
| 20260831044503 | 27 | 0 | 0.0 | 0.0 | 0.00 | 0.00 | 0.00 | 56 | 1002.9 |
| 20260831043624 | 27 | 0 | 0.0 | 0.0 | 0.00 | 0.00 | 0.00 | 56 | 1002.9 |
| 20260831042724 | 27 | 0 | 0.0 | 0.0 | 0.00 | 0.00 | 0.00 | 56 | 1002.9 |
| 20260831041803 | 27 | 0 | 0.0 | 0.0 | 0.00 | 0.00 | 0.00 | 56 | 1002.9 |
| 20260831040903 | 27 | 0 | 0.0 | 0.0 | 0.00 | 0.00 | 0.00 | 56 | 1002.9 |
| 20260831040003 | 27 | 0 | 0.0 | 0.0 | 0.00 | 0.00 | 0.00 | 56 | 1002.9 |
| 20260831035424 | 27 | 0 | 0.0 | 0.0 | 0.00 | 0.00 | 0.00 | 56 | 1002.9 |
| 20260831034503 | 27 | 0 | 0.0 | 0.0 | 0.00 | 0.00 | 0.00 | 56 | 1002.9 |
| 20260831033603 | 27 | 0 | 0.0 | 0.0 | 0.00 | 0.00 | 0.00 | 56 | 1002.9 |
| 20260831032703 | 27 | 0 | 0.0 | 0.0 | 0.00 | 0.00 | 0.00 | 56 | 1002.9 |
| 20260831031803 | 27 | 0 | 0.0 | 0.0 | 0.00 | 0.00 | 0.00 | 56 | 1002.9 |
| 20260831030903 | 27 | 0 | 0.0 | 0.0 | 0.00 | 0.00 | 0.00 | 56 | 1002.9 |
| 20260831030003 | 27 | 0 | 0.0 | 0.0 | 0.00 | 0.00 | 0.00 | 56 | 1002.9 |
| 20260831025403 | 27 | 0 | 0.0 | 0.0 | 0.00 | 0.00 | 0.00 | 56 | 1002.9 |
| 20260831024503 | 27 | 0 | 0.0 | 0.0 | 0.00 | 0.00 | 0.00 | 56 | 1002.9 |
| 20260831023603 | 27 | 0 | 0.0 | 0.0 | 0.00 | 0.00 | 0.00 | 56 | 1001.8 |
| 20260831022703 | 27 | 0 | 0.0 | 0.0 | 0.00 | 0.00 | 0.00 | 56 | 1001.8 |
| 20260831021824 | 27 | 0 | 0.0 | 0.0 | 0.00 | 0.00 | 0.00 | 56 | 1001.8 |
| 20260831020903 | 27 | 0 | 0.0 | 0.0 | 0.00 | 0.00 | 0.00 | 56 | 1001.8 |
| 20260831020004 | 27 | 0 | 0.0 | 0.0 | 0.00 | 0.00 | 0.00 | 56 | 1001.8 |
| 20260831015403 | 27 | 0 | 0.0 | 0.0 | 0.00 | 0.00 | 0.00 | 56 | 1000.8 |
| 20260831014503 | 27 | 0 | 0.0 | 0.0 | 0.00 | 0.00 | 0.00 | 56 | 1000.8 |
| 20260831013603 | 27 | 0 | 0.0 | 0.0 | 0.00 | 0.00 | 0.00 | 56 | 1000.8 |
| 20260831012703 | 27 | 0 | 0.0 | 0.0 | 0.00 | 0.00 | 0.00 | 55 | 1000.8 |
| 20260831011824 | 28 | 0 | 0.0 | 0.0 | 0.00 | 0.00 | 0.00 | 53 | 1000.8 |
| 20260831010903 | 28 | 0 | 0.0 | 0.0 | 0.00 | 0.00 | 0.00 | 52 | 1000.8 |
| 20260831010003 | 28 | 0 | 0.0 | 0.0 | 0.00 | 0.00 | 0.00 | 52 | 1000.8 |
| 20260831005424 | 28 | 0 | 0.0 | 0.0 | 0.00 | 0.00 | 0.00 | 51 | 1000.8 |
| 20260831004503 | 29 | 0 | 0.0 | 0.0 | 0.00 | 0.00 | 0.00 | 52 | 1000.8 |
| 20260831003603 | 29 | 235 | 0.0 | 3.2 | 0.00 | 0.00 | 0.00 | 53 | 1000.8 |
| 20260831002703 | 30 | 247 | 0.0 | 1.6 | 0.00 | 0.00 | 0.00 | 53 | 1001.8 |
| 20260831001803 | 30 | 247 | 1.6 | 1.6 | 0.00 | 0.00 | 0.00 | 53 | 1001.8 |
| 20260831000903 | 30 | 0 | 0.0 | 0.0 | 0.00 | 0.00 | 0.00 | 54 | 1000.8 |
| 20260831000003 | 30 | 0 | 0.0 | 0.0 | 0.00 | 0.00 | 0.00 | 55 | 1000.8 |
| 20260830235403 | 30 | 0 | 0.0 | 0.0 | 0.00 | 0.00 | 0.00 | 54 | 1000.8 |
| 20260830234503 | 30 | 0 | 0.0 | 0.0 | 0.00 | 0.00 | 0.00 | 54 | 1000.8 |
| 20260830233603 | 30 | 0 | 0.0 | 0.0 | 0.00 | 0.00 | 0.00 | 54 | 1000.8 |
| 20260830232724 | 31 | 0 | 0.0 | 0.0 | 0.00 | 0.00 | 0.00 | 50 | 1000.8 |
| 20260830231803 | 31 | 0 | 0.0 | 0.0 | 0.00 | 0.00 | 0.00 | 52 | 1000.8 |
| 20260830230924 | 31 | 0 | 0.0 | 0.0 | 0.00 | 0.00 | 0.00 | 50 | 1000.8 |
| 20260830230003 | 31 | 0 | 0.0 | 0.0 | 0.00 | 0.00 | 0.00 | 50 | 1000.8 |